Location: Leikkuu
(61.3500°N, 22.7500°E)
Time: 06:17:54
(UTC+00:00)

Daily predictions for brighter satellites

Satellite Brightness Start Highest point End
(mag) Time Altitude Azimuth Time Altitude Azimuth Time Altitude Azimuth
Cosmos 1943 3.4 15:07:29 10° NW 15:13:03 54° NE 15:18:36 10° ESE
Cosmos 1818 3.8 15:10:06 10° W 15:15:32 60° N 15:20:57 10° ENE
Cosmos 1939 Rocket 4.1 15:13:08 10° ESE 15:16:13 22° NE 15:19:22 10° N
Cosmos 2150 Rocket 4.0 15:11:09 10° SSW 15:16:19 85° ESE 15:21:33 10° NE
Cosmos 2154 Rocket 4.1 15:11:00 10° S 15:17:06 59° E 15:23:12 10° NNE
Cosmos-2242 3.0 15:13:08 10° N 15:17:27 63° ENE 15:21:42 10° SSE
H-2A R/B 3.5 15:14:27 10° ENE 15:17:51 18° NE 15:21:18 10° N
Cosmos 1825 Rocket 4.4 15:14:16 10° SSE 15:18:01 29° E 15:21:46 10° NNE
SMAP 3.1 15:15:37 10° SSE 15:20:18 81° ENE 15:24:59 10° NNW
Cosmos 1674 3.4 15:17:22 10° SSW 15:21:02 54° WNW 15:24:44 10° N
Cosmos 407 Rocket 3.8 15:16:00 10° NNW 15:21:09 46° NE 15:26:12 10° ESE
Cosmos 1190 Rocket 4.4 15:18:47 10° NNW 15:23:53 44° NE 15:28:59 10° ESE
Cosmos 2074 Rocket 4.1 15:20:35 10° SSW 15:26:53 90° SSE 15:33:13 10° NNE
ERS-2 4.5 15:26:12 10° N 15:28:53 19° NW 15:31:33 10° W
Cosmos 1242 Rocket 2.6 15:26:42 10° SSW 15:30:18 86° WNW 15:33:59 10° NNE
SL-14 R/B 3.3 15:30:14 10° SSW 15:34:11 89° SE 15:38:07 10° NNE
Cosmos 1689 Rocket 2.1 15:31:39 10° NNE 15:34:36 63° ESE 15:37:32 10° S
USA 234 4.3 15:28:31 10° SE 15:34:47 46° SSW 15:41:04 10° W
Cosmos 839 Rocket 4.3 15:32:25 10° W 15:38:34 63° NNW 15:45:14 11° ENE
ATLAS 5 CENTAUR R/B 1.9 15:34:53 10° WSW 15:39:34 80° NNW 15:44:46 11° ENE
Okean O Rocket 3.2 15:37:06 10° S 15:41:19 40° W 15:45:34 10° NNW
Meteor 1-21 Rocket 4.5 15:36:25 10° S 15:41:54 51° E 15:47:32 10° NNE
FengYun 1-2 T 4.3 15:36:36 10° SE 15:42:13 66° ENE 15:47:52 10° NNW
ERBS 3.8 15:40:48 10° SW 15:43:38 26° SSE 15:46:27 10° E
Cosmos 2082 Rocket 3.3 15:43:30 10° WNW 15:48:31 31° N 15:53:05 12° ENE
Cosmos 614 Rocket 4.0 15:44:21 10° NNW 15:49:32 64° NE 15:54:44 10° SE
Meteor 2-10 Rocket 3.6 15:44:16 10° NNW 15:49:38 86° WSW 15:54:46 10° SSE
CSL-04 Rocket 3.9 15:44:37 10° SE 15:49:59 52° ENE 15:55:23 10° NNW
Cosmos 1455 2.2 15:47:36 10° NNW 15:51:28 84° WSW 15:55:15 10° S
Cosmos 1727 Rocket 4.0 15:48:25 10° NNW 15:54:35 65° ENE 16:00:44 10° SSE
Ariane Rocket 3.7 15:50:18 10° ESE 15:54:48 33° NE 15:59:20 10° N
Okean-O 2.6 15:50:35 10° SSE 15:55:02 85° ENE 15:59:31 10° NNW
SJ-6B 4.4 15:54:46 14° ENE 15:55:31 15° NE 15:57:42 10° NNE
ATLAS CENTAUR R/B 4.4 15:49:30 10° WSW 15:55:47 65° SSE 16:11:49 13° E
PSLV R/B 4.0 15:53:29 10° NNE 15:57:32 58° ESE 16:01:37 10° S
YAOGAN 1 2.7 15:56:00 10° SE 16:00:12 52° ENE 16:04:26 10° NNW
CZ-4 R/B 1.5 15:57:33 10° SE 16:01:39 60° ENE 16:05:51 10° NNW
Resurs 01 Rocket 3.4 16:01:41 13° NE 16:02:28 14° NE 16:04:38 10° N
COSMOS 2406 4.0 15:57:58 10° NW 16:03:09 34° NNE 16:07:09 16° ENE
SL-8 Rocket 4.1 15:57:43 10° S 16:03:51 58° E 16:09:57 10° NNE
ATLAS CENTAUR R/B 4.0 16:00:50 10° WNW 16:04:07 23° SW 16:07:12 10° S
Cosmos 1703 3.8 16:00:28 10° SSE 16:04:10 38° E 16:07:53 10° NNE
CZ-4B R/B 2.5 16:02:21 10° N 16:05:15 39° WNW 16:08:09 10° SW
SeaSat 1 3.8 16:01:53 10° NE 16:05:59 29° NNW 16:10:12 10° WNW
Cosmos 2084 3.7 16:01:53 10° WNW 16:06:20 76° SSW 16:10:42 10° ESE
Cosmos 1400 Rocket 4.2 16:03:39 10° N 16:06:46 21° NE 16:08:10 18° E
Cosmos 1602 Rocket 4.2 16:11:44 10° SSW 16:16:02 56° WNW 16:20:19 10° N
SL-16 R/B 4.0 16:11:00 10° NW 16:16:07 35° WSW 16:21:13 10° S
Cosmos 1140 Rocket 3.5 16:15:26 10° NNW 16:20:43 70° NE 16:25:58 10° SE
YAOGAN 6 3.1 16:20:45 10° S 16:24:22 64° WSW 16:27:58 10° NNW
Cosmos 1151 Rocket 4.3 16:21:21 10° N 16:24:39 21° NE 16:24:56 20° ENE
Cosmos 1356 Rocket 3.7 16:21:38 10° NNW 16:25:41 70° WSW 16:29:45 10° S
Cosmos 1842 Rocket 3.5 16:22:19 10° NNW 16:26:51 84° ENE 16:31:21 10° SSE
COSMO-SKYMED 1 2.9 16:23:24 10° NNE 16:27:35 42° E 16:31:44 10° S
IRS-1A Rocket 4.4 16:22:58 10° SE 16:28:25 50° ENE 16:33:47 10° NNW
CZ-2D R/B 3.2 16:25:31 10° SSE 16:29:21 64° ENE 16:33:13 10° NNW
Cosmos 1869 3.4 16:25:39 10° N 16:29:35 50° ENE 16:33:27 10° SE
Cosmos 1603 4.1 16:24:12 10° NW 16:29:52 66° SW 16:35:27 10° SSE
CZ-2C R/B 3.9 16:25:45 14° ESE 16:30:01 35° NE 16:35:13 10° N
Cosmos 1953 Rocket 3.5 16:26:09 10° S 16:30:37 76° ESE 16:35:07 10° NNE
ARGOS 3.7 16:26:47 14° ESE 16:30:56 35° NE 16:35:50 10° N
Cosmos 2082 3.8 16:26:22 10° SSW 16:31:50 55° ESE 16:36:03 17° NE
Cosmos 724 4.3 16:26:27 10° SW 16:32:21 76° SE 16:36:28 20° ENE
Cosmos 44 3.4 16:28:25 10° SSW 16:32:43 47° SE 16:34:51 26° ENE
Cosmos 2219 3.2 16:28:35 10° SW 16:34:15 86° NW 16:39:03 15° NE
Cosmos 1758 Rocket 3.8 16:30:01 10° SSW 16:34:20 72° WNW 16:38:42 10° NNE
Timation 2 Rocket 4.3 16:28:04 10° WSW 16:34:22 67° NW 16:39:58 15° NE
Cosmos 2341 Rocket 4.1 16:28:06 10° SSW 16:34:28 83° WNW 16:40:49 10° NNE
Cosmos 2297 Rocket 2.2 16:29:12 10° SSW 16:34:52 80° SE 16:39:30 16° NE
Cosmos 1850 Rocket 4.4 16:30:52 10° NNW 16:35:58 44° NE 16:39:01 22° ESE
Cosmos 2263 Rocket 3.3 16:34:24 10° SSE 16:38:29 21° ESE 16:38:38 21° E
USA 267 4.0 16:34:40 20° E 16:38:35 36° SE 16:44:32 10° SSW
Cosmos 1821 Rocket 4.4 16:32:52 10° SSE 16:38:40 40° E 16:44:25 10° NNE
Cosmos 864 Rocket 4.4 16:32:50 10° S 16:38:56 72° E 16:45:07 10° NNE
SJ 16-02 3.5 16:37:11 10° WNW 16:40:23 19° NNW 16:43:36 10° NNE
Cosmos 1626 4.3 16:43:38 10° WSW 16:46:48 26° WNW 16:50:00 10° N
ISS -1.5 16:44:41 10° SW 16:46:52 16° S 16:48:04 14° SSE
SJ-11-01 4.4 16:43:09 10° SE 16:47:44 52° ENE 16:52:19 10° NNW
Cosmos 1741 Rocket 4.3 16:43:02 10° NNW 16:48:10 48° NE 16:50:53 26° ESE
Cosmos 1125 Rocket 4.3 16:43:20 10° WSW 16:48:24 48° NW 16:53:05 12° NNE
Cosmos 2227 Rocket 2.1 16:42:59 10° SW 16:48:40 87° SE 16:52:56 18° NE
Cosmos 2221 2.5 16:44:24 10° NNW 16:48:42 82° W 16:53:01 10° S
Cosmos 1607 4.0 16:43:07 10° WSW 16:49:18 74° NNW 16:53:13 24° ENE
Cosmos 1833 Rocket 3.5 16:44:25 10° NW 16:49:39 36° NNE 16:52:03 25° ENE
NOAA 11 4.3 16:44:53 10° SSE 16:50:24 80° WSW 16:55:55 10° NNW
Envisat 4.5 16:45:38 10° SSW 16:50:24 40° W 16:55:13 10° NNW
Cosmos 1939 Rocket 2.9 16:46:42 10° SSE 16:50:43 86° WSW 16:54:50 10° NNW
Cosmos 1954 Rocket 4.0 16:46:04 10° NW 16:51:27 81° NE 16:56:48 10° SE
ATLAS 5 CENTAUR R/B 3.5 16:48:56 10° WNW 16:52:31 56° SSW 17:04:16 10° SE
Cosmos 2218 Rocket 4.0 16:47:03 10° S 16:53:28 89° ESE 16:59:57 10° NNE
Cosmos 1825 Rocket 4.2 16:51:24 10° SSW 16:55:39 55° WNW 16:59:57 10° N
H-2A R/B 2.2 16:52:32 17° SE 16:56:16 49° ENE 17:01:20 10° NNW
Cosmos 1959 Rocket 4.4 16:51:01 10° SSW 16:57:10 88° WNW 17:03:20 10° NNE
Cosmos 1943 3.8 16:51:42 10° NW 16:57:15 57° WSW 17:02:46 10° SSE
Cosmos 2123 Rocket 4.0 16:50:56 10° NNW 16:57:15 65° ENE 17:03:30 10° SSE
Cosmos 1818 3.6 16:54:09 10° WNW 16:59:38 72° NNE 17:02:15 32° E
Meteor 1-11 4.1 16:54:54 10° S 17:00:27 72° ESE 17:06:03 10° NNE
SL-08 R/B 4.5 16:54:06 10° S 17:00:28 76° E 17:06:58 10° NNE
Cosmos 1000 Rocket 4.5 16:54:46 10° NNW 17:01:00 89° W 17:07:17 10° S
HJ-1C 3.2 16:59:28 24° SSE 17:01:22 72° ENE 17:04:43 10° NNW
Cosmos 1076 Rocket 4.2 16:57:34 10° SSE 17:00:51 34° ESE 17:00:51 34° ESE
Cosmos 1328 Rocket 4.2 16:58:41 10° N 17:02:46 35° ENE 17:02:46 35° ENE
Cosmos 407 Rocket 4.1 16:58:09 10° NW 17:03:22 58° WSW 17:08:30 10° SSE
Cosmos 1315 Rocket 4.3 17:02:27 10° N 17:04:33 22° NNE 17:04:33 22° NNE
Cosmos 1934 Rocket 4.3 17:00:57 10° SSE 17:06:31 40° E 17:12:07 10° NNE
Terra 3.9 17:13:01 13° NNE 17:13:01 13° NNE 17:14:25 10° N
ADEOS Rocket 3.5 17:06:56 10° NNE 17:13:22 48° E 17:20:24 10° S
SKYMED 2 3.5 17:11:25 10° NNE 17:15:49 87° WNW 17:20:10 10° SSW
Cosmos 2366 rocket 4.2 17:11:16 10° SSW 17:17:33 73° WNW 17:23:56 10° NNE
Cosmos 676 Rocket 4.3 17:13:48 10° NW 17:19:09 72° WSW 17:24:29 10° SSE
ERBS 3.1 17:16:22 10° WSW 17:19:26 39° S 17:19:26 39° S
SWAS 4.4 17:16:57 10° SSW 17:21:15 69° SE 17:21:59 56° ENE
ATLAS 5 CENTAUR R/B 2.0 17:19:36 10° WNW 17:24:33 74° N 17:26:19 44° E
SPOT 3 Rocket 3.5 17:25:18 39° ESE 17:27:00 60° ENE 17:32:07 10° NNW
Cosmos 44 Rocket 3.9 17:23:41 10° SSW 17:27:40 37° SE 17:27:40 37° SE
SJ-6B 3.2 17:30:23 48° NNE 17:30:23 48° NNE 17:33:18 10° NNW
SL-08 RB Rocket 3.8 17:31:48 55° ENE 17:31:50 55° ENE 17:36:20 10° NNW
Ariane Rocket 3.2 17:28:24 10° SSE 17:33:29 73° WSW 17:38:37 10° NNW
Cosmos 2082 Rocket 2.8 17:28:39 10° NW 17:33:56 39° NNE 17:34:56 36° NE
YAOGAN 1 4.3 17:32:35 10° SSW 17:36:31 33° W 17:40:29 10° NNW
CZ-4 R/B 3.6 17:33:26 10° SSW 17:37:01 27° W 17:40:39 10° NNW
Resurs 01 Rocket 2.6 17:39:14 33° NNE 17:39:14 33° NNE 17:42:10 10° N
Cosmos 839 Rocket 4.3 17:32:58 10° WNW 17:39:19 67° NNE 17:41:51 41° E
SeaSat 1 3.8 17:41:39 25° NNE 17:42:34 26° N 17:46:38 10° NW
Cosmos 1400 Rocket 2.7 17:39:45 10° NNW 17:43:50 88° WSW 17:43:51 88° SW
USA 238 DEB 4.2 17:37:58 10° S 17:43:45 36° SE 17:43:45 36° SE
USA 238 4.2 17:38:06 10° S 17:43:48 36° SE 17:43:48 36° SE
Cosmos 1447 Rocket 4.3 17:41:07 10° NNW 17:47:18 73° ENE 17:50:15 33° SSE
COSMOS 2406 3.2 17:42:45 10° NW 17:48:24 63° NE 17:49:14 57° E
Meteor 1-26 Rocket 4.3 17:43:53 10° NNW 17:49:33 54° ENE 17:49:52 54° ENE
Spot 2 Rocket 4.4 17:55:01 34° NNE 17:55:01 34° NNE 17:58:31 10° NNW
SL-24 R/B - RUBIN 2 4.4 17:50:30 10° WNW 17:56:46 80° NNE 17:58:17 56° E
Cosmos 2056 Rocket 4.2 17:52:03 10° S 17:55:37 39° SSE 17:55:37 39° SSE
In-Cosmos 22 Rocket 4.0 17:54:06 10° S 17:59:40 71° ESE 18:00:45 55° NE
Cosmos 1151 Rocket 3.5 17:58:30 10° NNW 18:01:48 51° N 18:01:48 51° N
COSMO-SKYMED 1 3.8 17:59:41 10° N 18:03:48 41° WNW 18:07:53 10° SW
CZ-2C R/B 3.3 18:06:48 33° S 18:09:31 78° WSW 18:15:23 10° NNW
ARGOS 3.3 18:08:17 31° S 18:10:57 70° WSW 18:16:24 10° NNW
Cosmos 44 3.4 18:09:26 10° WSW 18:13:17 61° WNW 18:13:17 61° WNW
Cosmos 2227 4.1 18:09:25 10° SSW 18:15:05 78° SE 18:15:05 78° SE
Cosmos 2082 4.2 18:10:30 10° WSW 18:16:04 56° NW 18:17:57 38° NNE
ERS-1 Rocket 4.5 18:18:57 25° NNE 18:18:57 25° NNE 18:21:28 10° N
Cosmos 1850 Rocket 4.4 18:13:06 10° NW 18:18:21 61° WSW 18:19:21 51° SSW
Cosmos 724 4.5 18:12:44 10° W 18:18:35 62° NNW 18:19:26 56° NNE
Cosmos 2219 4.3 18:13:46 10° W 18:19:05 40° NNW 18:21:00 31° NNE
Cosmos 2297 Rocket 3.1 18:13:59 10° W 18:19:25 44° NNW 18:21:19 33° NNE
SJ 16-02 3.7 18:18:12 10° NNW 18:20:40 15° N 18:20:40 15° N
Cosmos 2263 Rocket 2.5 18:16:02 10° SSW 18:20:23 54° S 18:20:23 54° S
USA 267 3.3 18:22:01 56° SSE 18:22:29 58° SSE 18:28:56 10° WSW
ISS -0.6 18:20:58 10° SW 18:21:01 10° SW 18:21:01 10° SW
Cosmos 1821 Rocket 4.4 18:17:37 10° SSW 18:23:54 62° WNW 18:30:07 10° NNE
Cosmos 2227 Rocket 3.2 18:27:55 10° W 18:33:18 42° NNW 18:34:46 35° N
Cosmos 968 Rocket 4.5 18:28:52 10° NNW 18:32:21 36° N 18:32:21 36° N
Cosmos 1833 Rocket 2.9 18:28:45 10° NW 18:33:45 64° N 18:33:45 64° N
Cosmos 1605 Rocket 3.9 18:28:46 10° S 18:35:11 87° E 18:41:38 10° NNE
H-2A R/B 3.0 18:33:08 25° SSW 18:35:49 45° W 18:40:53 10° NNW
Cosmos 1607 4.0 18:30:57 10° WNW 18:37:07 64° N 18:37:20 63° NNE
Cosmos 1818 4.1 18:37:52 10° WNW 18:42:54 55° WSW 18:42:54 55° WSW
Terra 4.0 18:51:54 18° N 18:51:54 18° N 18:53:14 10° N
Cosmos 1934 Rocket 4.3 18:45:37 10° SSW 18:51:37 60° WNW 18:57:39 10° NNE
ADEOS Rocket 3.7 18:52:39 10° NNE 18:59:07 62° WNW 19:06:16 10° SW
ATLAS 5 CENTAUR R/B 2.9 19:04:10 10° WNW 19:07:51 47° W 19:07:51 47° W
Resurs 01 Rocket 3.7 19:16:48 24° NW 19:16:48 24° NW 19:18:49 10° NNW
Cosmos 2082 Rocket 3.1 19:13:01 10° NW 19:16:47 44° NW 19:16:47 44° NW
SeaSat 1 4.2 19:21:25 27° NNW 19:21:25 27° NNW 19:23:55 10° NW
COSMOS 2406 4.4 19:27:17 10° NW 19:31:18 38° W 19:31:18 38° W
SJ 16-02 4.4 19:57:27 10° NNW 19:57:40 11° NNW 19:57:40 11° NNW
Cosmos 2297 Rocket 4.0 19:59:40 10° WNW 20:03:09 27° NNW 20:03:09 27° NNW
Cosmos 2263 Rocket 4.3 20:00:30 10° WSW 20:02:08 19° W 20:02:08 19° W
Cosmos 2227 Rocket 4.1 20:13:37 10° WNW 20:16:36 25° NW 20:16:36 25° NW
